Flag for Canada Weather past 2 weeks in Kamloops, British Columbia, Canada

16 °F


Feels Like: 8 °F
Forecast: 6 / 24 °F
Wind: 5 mph from West

Location: Kamloops

Current Time: Nov 27, 2015 at 9:55:48 AM

Latest Report: Nov 27, 2015 at 9:00 AM

Visibility: 30 mi

Pressure: 30.79 "Hg

Humidity: 73%

Dew point: 9 °F

Location of KamloopsLocation

Historic Weather in Kamloops — Graph


Kamloops temperature yesterday

Maximum temperature yesterday: 21 °F (at 2:00 PM)
Minimum temperature yesterday: 7 °F (at 7:00 AM)
Average temperature yesterday: 13 °F

Past Weeks' High & Low Weather Summary

High54 °F (Nov 13, 10:00 AM)100% (Nov 15, 4:00 AM)30.85 "Hg (Nov 15, 4:00 AM)
Low7 °F (Nov 26, 7:00 AM)48% (Nov 18, 12:00 AM)29.10 "Hg (Nov 17, 1:00 PM)
Average31 °F74%30.13 "Hg
* Reported Nov 12 8:00 AM — Nov 27 8:00 AM, Kamloops, Weather by CustomWeather, © 2015

Note: Actual official high and low records may vary slightly from our data, if they occured in-between our weather recording intervals... More about our weather records


Kamloops weather history for previous 24 hours

Time TempWeatherWind HumidityBarometerVisibility
8:00 AM
Fri, Nov 27
16 °FLight snow. Overcast.No wind79%30.79 "Hg40 mi
7:00 AM18 °FLight snow. Overcast.3 mph73%30.78 "Hg30 mi
6:00 AM18 °FOvercast.2 mph73%30.78 "Hg30 mi
5:00 AM18 °FLight snow. Overcast.2 mph73%30.77 "Hg30 mi
4:00 AM18 °FOvercast.2 mph73%30.78 "Hg30 mi
3:00 AM18 °FOvercast.2 mph73%30.78 "Hg30 mi
2:00 AM16 °FOvercast.5 mph79%30.78 "Hg30 mi
1:00 AM16 °FOvercast.3 mph79%30.78 "Hg30 mi
12:00 AM16 °FOvercast.2 mph79%30.79 "Hg30 mi
11:00 PM
Thu, Nov 26
16 °FOvercast.2 mph79%30.80 "Hg30 mi
10:00 PM14 °FPassing clouds.5 mph85%30.79 "Hg30 mi
9:00 PM14 °FPassing clouds.7 mph79%30.80 "Hg40 mi
8:00 PM12 °FPassing clouds.6 mph79%30.80 "Hg40 mi
7:00 PM12 °FPassing clouds.6 mph79%30.79 "Hg40 mi
6:00 PM14 °FPassing clouds.2 mph79%30.78 "Hg40 mi
5:00 PM16 °FPassing clouds.5 mph73%30.78 "Hg40 mi
4:00 PM19 °FPassing clouds.6 mph73%30.78 "Hg40 mi
3:00 PM21 °FPassing clouds.7 mph68%30.78 "Hg40 mi
2:00 PM21 °FPassing clouds.3 mph63%30.80 "Hg40 mi
1:00 PM19 °FPassing clouds.3 mph68%30.81 "Hg30 mi
12:00 PM18 °FPassing clouds.No wind73%30.82 "Hg30 mi
11:00 AM14 °FScattered clouds.5 mph79%30.84 "Hg30 mi
10:53 AM14 °FScattered clouds.2 mph79%30.84 "Hg30 mi
10:00 AM14 °FLight snow. Partly sunny.5 mph79%30.85 "Hg30 mi
9:00 AM12 °FPartly sunny.3 mph85%30.84 "Hg30 mi
Weather by CustomWeather, © 2015

See weather overviewHow to use our weather pages